Location: Newark
(58.8333°N, 23.5833°E)
Time: 11:32:02
(UTC+00:00)

A-11 Canister half - Pass Details

Date: 17 November 2019
Orbit: 1515 x 1685 km, 47.2° (Epoch: 05 December)

Event Time Altitude Azimuth Distance (km) Brightness Sun altitude
Rises 22:59:44 0° 279° (W) 4,944 - -49.3°
Reaches altitude 10° 23:03:50 10° 266° (W) 3,944 - -49.1°
Maximum altitude 23:10:53 22° 221° (SW) 3,057 - -48.8°
Drops below altitude 10° 23:17:50 10° 176° (S) 3,868 - -48.4°
Sets 23:21:50 0° 162° (SSE) 4,824 - -48.2°
